Location: L�Ave Maria
(50.7161°N, 1.5911°E)
Time: 00:23:55
(UTC+00:00)

TSX-5 - Pass Details

Date: 10 July 2020
Orbit: 404 x 1328 km, 68.9° (Epoch: 03 August)

Event Time Altitude Azimuth Distance (km) Brightness Sun altitude
Rises 20:50:33 0° 327° (NNW) 2,429 9.3 -6.2°
Reaches altitude 10° 20:52:28 10° 329° (NNW) 1,618 7.9 -6.4°
Maximum altitude 20:55:59 80° 56° (NE) 536 3.8 -6.8°
Drops below altitude 10° 21:00:19 10° 144° (SE) 1,979 6.0 -7.2°
Enters shadow 21:00:32 - 145° (SE) 2,071 6.1 -7.3°
